Regional Weather Roundup
Issued by NWS State College, PA

Home | Current Version | Previous Version | Text Only | Print | Product List | Glossary Off
Versions: 1 2 3 4 5 6 7 8 9 10 11 12 13 14 15 16 17 18 19 20 21 22 23 24 25 26 27 28 29 30 31 32 33 34 35 36 37 38 39 40 41 42 43 44 45 46 47 48 49 50

000
ASUS41 KCTP 031710
RWRCTP

REGIONAL WEATHER ROUNDUP
NATIONAL WEATHER SERVICE STATE COLLEGE PA
100 PM EDT FRI JUL 03 2015

Note: "fair" indicates few or no clouds below 12,000 feet with no
significant weather and/or obstructions to visibility.

* = STATION THAT DOES NOT REPORT PRECIPITATION /E.G. RAIN...SNOW...ETC/
    THUNDER OR FOG.

PAZ002>004-007>009-013>016-020>023-029>032-031800-
WESTERN PENNSYLVANIA

CITY           SKY/WX    TMP DP  RH WIND       PRES   REMARKS
ERIE           SUNNY     71  50  47 NE12      29.97F
MEADVILLE      MOSUNNY   70  51  51 CALM      29.98F
FRANKLIN*      MOSUNNY   73  55  53 CALM      29.99F
NEW CASTLE     PTSUNNY   76  59  55 CALM      29.97F
BEAVER COUNTY  MOSUNNY   73  55  53 SE5       29.96F
BUTLER*        MOSUNNY   73  57  56 S5        29.98F
PITTSBURGH INT CLOUDY    76  57  51 SE6       29.95F
PITTSBURGH     MOSUNNY   76  54  46 SE6       29.95F
INDIANA*       MOSUNNY   75  61  60 VRB6G14   30.01F
LATROBE        MOSUNNY   75  59  57 SE6       29.96F
WASHINGTON CO* NOT AVBL
$$

PAZ004>006-010>012-017>019-024>028-033>037-041-042-045-046-049>053-031800-
CENTRAL PENNSYLVANIA

CITY           SKY/WX    TMP DP  RH WIND       PRES   REMARKS
BRADFORD       SUNNY     70  51  51 VRB3      30.02S
DUBOIS         MOSUNNY   73  56  54 SE8       29.99F
CLEARFIELD     PTSUNNY   73  59  61 VRB5      30.01F
JOHNSTOWN      PTSUNNY   67  58  72 SE8       30.02F
ALTOONA        PTSUNNY   73  62  68 SE8       30.01F
STATE COLLEGE  PTSUNNY   72  57  60 CALM      30.01F
WILLIAMSPORT   MOSUNNY   75  53  46 SE5       29.99F
SELINSGROVE    SUNNY     76  57  51 CALM      30.00F
FT INDIANTOWN  MOSUNNY   76  60  57 S7        30.00S
CAPITAL CITY   MOSUNNY   77  59  53 SE5       29.99F
HARRISBURG     PTSUNNY   79  61  53 CALM      29.98F
YORK           MOSUNNY   77  62  59 SE8       29.99F
$$

PAZ038>040-043-044-047-048-054-055-060>062-067>071-031800-
EASTERN PENNSYLVANIA

CITY           SKY/WX    TMP DP  RH WIND       PRES   REMARKS
SCRANTON       SUNNY     76  52  43 VRB6      30.01F
MOUNT POCONO   MOSUNNY   71  49  45 VRB6      30.04F
ALLENTOWN      SUNNY     77  54  44 NW3       30.00F
QUAKERTOWN*    SUNNY     77  57  50 SW3       30.02S
READING        MOSUNNY   78  59  51 VRB6      29.99S
LANCASTER      MOSUNNY   77  62  59 VRB3      29.99F
COATESVILLE    MOSUNNY   75  61  60 S5        30.02S
POTTSTOWN      SUNNY     77  60  55 NE5       30.01S
BLUE BELL      SUNNY     79  61  53 CALM      29.99S
DOYLESTOWN     MOSUNNY   75  57  53 S6        30.00S
WILLOW GROVE   NOT AVBL
NORTH PHILA    SUNNY     81  57  43 E6        30.01S
PHILADELPHIA   PTSUNNY   82  60  47 SE3       30.00S
$$


USA.gov is the U.S. government's official web portal to all federal, state and local government web resources and services.